QPF
0.05 0.04 0.02 0.03 0.05 0.07 0.06 0.05 0.06 0.06 0.06 0.07 0.06 0.07 0.07 0.07 0.08 0.04 0.04 0.04 0.05 0.06 0.07 0.09 0.10 0.09 0.08 0.06 0.07 0.16 0.23 0.22 0.14 0.09 0.08 0.08 0.08 0.16 0.23 0.15 0.13 0.14 0.13
0.04 0.04 0.03 0.03 0.06 0.07 0.07 0.06 0.05 0.05 0.07 0.08 0.07 0.08 0.07 0.06 0.06 0.05 0.05 0.05 0.06 0.07 0.07 0.08 0.08 0.08 0.08 0.07 0.13 0.21 0.23 0.20 0.12 0.07 0.09 0.11 0.07 0.14 0.26 0.17 0.13 0.11 0.14
0.03 0.03 0.02 0.03 0.05 0.05 0.07 0.07 0.05 0.05 0.05 0.06 0.07 0.09 0.07 0.07 0.07 0.05 0.05 0.06 0.07 0.07 0.08 0.08 0.09 0.08 0.07 0.07 0.11 0.13 0.15 0.13 0.09 0.08 0.13 0.19 0.13 0.17 0.24 0.17 0.12 0.09 0.10
0.01 0.01 0.01 0.04 0.06 0.04 0.05 0.07 0.07 0.05 0.06 0.06 0.06 0.06 0.06 0.07 0.07 0.05 0.05 0.06 0.07 0.06 0.07 0.08 0.08 0.07 0.06 0.06 0.07 0.09 0.10 0.09 0.10 0.10 0.14 0.19 0.18 0.19 0.19 0.12 0.09 0.08 0.10
0.00 0.01 0.01 0.04 0.05 0.05 0.05 0.06 0.05 0.05 0.08 0.09 0.07 0.07 0.08 0.08 0.08 0.05 0.07 0.07 0.06 0.05 0.06 0.08 0.07 0.06 0.06 0.06 0.07 0.07 0.08 0.08 0.09 0.12 0.15 0.16 0.16 0.16 0.12 0.10 0.09 0.08 0.09
0.01 0.02 0.01 0.02 0.04 0.05 0.05 0.05 0.04 0.06 0.11 0.15 0.11 0.08 0.10 0.11 0.10 0.08 0.07 0.08 0.07 0.05 0.05 0.06 0.06 0.06 0.06 0.06 0.06 0.07 0.07 0.08 0.10 0.11 0.17 0.20 0.18 0.15 0.12 0.11 0.09 0.08 0.09
0.02 0.03 0.01 0.02 0.03 0.04 0.05 0.05 0.05 0.06 0.09 0.13 0.15 0.13 0.14 0.13 0.13 0.12 0.07 0.07 0.07 0.06 0.05 0.06 0.07 0.06 0.07 0.10 0.10 0.10 0.09 0.10 0.11 0.11 0.15 0.19 0.19 0.17 0.15 0.13 0.10 0.08 0.10
0.01 0.02 0.01 0.01 0.02 0.03 0.03 0.04 0.04 0.04 0.06 0.10 0.13 0.13 0.14 0.13 0.12 0.11 0.06 0.06 0.07 0.05 0.04 0.05 0.06 0.07 0.10 0.13 0.13 0.14 0.11 0.10 0.11 0.13 0.15 0.17 0.16 0.18 0.16 0.13 0.12 0.12 0.11
0.01 0.02 0.01 0.01 0.02 0.03 0.03 0.03 0.03 0.03 0.04 0.05 0.06 0.07 0.10 0.09 0.08 0.08 0.07 0.07 0.08 0.08 0.08 0.09 0.14 0.23 0.26 0.17 0.14 0.16 0.13 0.09 0.09 0.12 0.11 0.14 0.15 0.15 0.13 0.12 0.12 0.12 0.10
0.01 0.04 0.02 0.02 0.03 0.03 0.04 0.03 0.02 0.03 0.04 0.04 0.03 0.03 0.04 0.04 0.06 0.08 0.07 0.06 0.09 0.11 0.12 0.13 0.17 0.20 0.20 0.14 0.12 0.14 0.12 0.07 0.06 0.08 0.10 0.11 0.13 0.13 0.12 0.12 0.12 0.12 0.11
0.01 0.03 0.03 0.03 0.04 0.04 0.04 0.02 0.03 0.03 0.03 0.03 0.03 0.02 0.02 0.04 0.05 0.07 0.06 0.05 0.05 0.06 0.07 0.07 0.08 0.10 0.12 0.11 0.08 0.05 0.05 0.05 0.06 0.06 0.06 0.09 0.10 0.11 0.11 0.12 0.12 0.14 0.14
0.02 0.03 0.03 0.03 0.03 0.04 0.03 0.03 0.04 0.04 0.03 0.03 0.02 0.02 0.02 0.03 0.05 0.05 0.05 0.05 0.04 0.04 0.05 0.05 0.04 0.04 0.05 0.06 0.05 0.04 0.05 0.05 0.05 0.06 0.06 0.09 0.11 0.13 0.13 0.12 0.11 0.13 0.16
0.01 0.01 0.01 0.03 0.03 0.03 0.03 0.04 0.05 0.06 0.06 0.05 0.02 0.01 0.02 0.02 0.04 0.05 0.05 0.04 0.04 0.03 0.03 0.03 0.03 0.03 0.03 0.05 0.05 0.05 0.05 0.04 0.06 0.05 0.05 0.08 0.10 0.12 0.15 0.16 0.13 0.11 0.12
0.01 0.00 0.01 0.02 0.03 0.03 0.02 0.02 0.03 0.05 0.04 0.03 0.02 0.02 0.01 0.03 0.05 0.05 0.04 0.05 0.03 0.03 0.03 0.02 0.03 0.02 0.03 0.02 0.02 0.03 0.04 0.04 0.06 0.05 0.05 0.06 0.06 0.07 0.07 0.11 0.16 0.12 0.10
0.05 0.02 0.01 0.01 0.03 0.03 0.03 0.02 0.02 0.03 0.04 0.03 0.03 0.03 0.03 0.04 0.05 0.04 0.03 0.03 0.03 0.03 0.03 0.03 0.03 0.02 0.02 0.02 0.02 0.01 0.02 0.02 0.02 0.03 0.03 0.03 0.04 0.05 0.07 0.08 0.14 0.16 0.13
0.04 0.03 0.02 0.01 0.02 0.03 0.02 0.02 0.03 0.03 0.04 0.03 0.03 0.03 0.03 0.04 0.05 0.04 0.02 0.01 0.01 0.02 0.02 0.03 0.02 0.02 0.01 0.01 0.01 0.02 0.02 0.01 0.02 0.03 0.03 0.02 0.02 0.03 0.06 0.14 0.21 0.24 0.21
0.03 0.04 0.03 0.02 0.01 0.02 0.02 0.02 0.03 0.06 0.06 0.07 0.05 0.03 0.03 0.03 0.02 0.01 0.01 0.00 0.01 0.01 0.02 0.03 0.02 0.01 0.01 0.00 0.01 0.01 0.01 0.02 0.02 0.02 0.02 0.02 0.02 0.01 0.03 0.09 0.17 0.23 0.22
0.02 0.03 0.03 0.02 0.02 0.02 0.02 0.02 0.03 0.07 0.10 0.15 0.15 0.11 0.07 0.04 0.02 0.02 0.02 0.01 0.01 0.02 0.02 0.03 0.03 0.02 0.01 0.01 0.01 0.01 0.01 0.01 0.01 0.01 0.01 0.02 0.02 0.02 0.02 0.03 0.06 0.11 0.11
0.03 0.03 0.04 0.03 0.01 0.01 0.01 0.01 0.02 0.05 0.10 0.15 0.15 0.13 0.10 0.05 0.03 0.01 0.01 0.01 0.01 0.02 0.02 0.02 0.03 0.03 0.02 0.01 0.00 0.01 0.01 0.01 0.01 0.01 0.01 0.01 0.01 0.02 0.02 0.02 0.03 0.03 0.03
0.02 0.03 0.03 0.03 0.02 0.00 0.01 0.02 0.03 0.04 0.05 0.07 0.07 0.05 0.04 0.04 0.03 0.02 0.01 0.01 0.01 0.01 0.02 0.03 0.03 0.04 0.02 0.01 0.00 0.00 0.00 0.01 0.00 0.00 0.00 0.00 0.00 0.00 0.01 0.02 0.02 0.02 0.02
0.01 0.02 0.03 0.04 0.04 0.01 0.01 0.01 0.02 0.03 0.02 0.04 0.04 0.03 0.03 0.03 0.04 0.03 0.01 0.01 0.02 0.02 0.02 0.02 0.04 0.03 0.01 0.01 0.01 0.01 0.01 0.01 0.00 0.01 0.00 0.01 0.01 0.01 0.00 0.01 0.02 0.02 0.01
0.00 0.02 0.03 0.04 0.04 0.02 0.01 0.01 0.01 0.02 0.02 0.02 0.02 0.02 0.02 0.02 0.02 0.02 0.01 0.01 0.01 0.02 0.02 0.02 0.02 0.02 0.01 0.01 0.01 0.02 0.02 0.02 0.02 0.01 0.01 0.01 0.01 0.00 0.00 0.00 0.01 0.01 0.02
0.00 0.01 0.03 0.04 0.04 0.04 0.03 0.01 0.02 0.02 0.01 0.01 0.01 0.02 0.02 0.02 0.02 0.02 0.02 0.02 0.02 0.02 0.02 0.02 0.01 0.01 0.02 0.02 0.01 0.01 0.02 0.02 0.02 0.02 0.01 0.01 0.00 0.00 0.00 0.01 0.01 0.00 0.01
0.00 0.01 0.02 0.05 0.06 0.06 0.03 0.01 0.01 0.01 0.01 0.01 0.01 0.01 0.01 0.01 0.02 0.02 0.02 0.02 0.02 0.03 0.04 0.03 0.01 0.02 0.03 0.03 0.02 0.01 0.01 0.01 0.01 0.01 0.01 0.01 0.01 0.00 0.00 0.00 0.01 0.01 0.01
0.00 0.01 0.02 0.04 0.07 0.07 0.04 0.02 0.03 0.03 0.02 0.02 0.01 0.01 0.01 0.01 0.01 0.03 0.04 0.03 0.02 0.03 0.04 0.03 0.02 0.02 0.03 0.04 0.04 0.03 0.03 0.01 0.01 0.01 0.01 0.01 0.01 0.00 0.00 0.00 0.01 0.01 0.01
0.01 0.01 0.02 0.02 0.05 0.08 0.07 0.03 0.02 0.03 0.04 0.03 0.02 0.01 0.02 0.02 0.02 0.02 0.02 0.03 0.02 0.02 0.02 0.02 0.03 0.02 0.02 0.01 0.02 0.02 0.02 0.02 0.01 0.01 0.01 0.01 0.01 0.01 0.00 0.00 0.01 0.01 0.01
MSLP
1007.82 1007.08 1006.45 1005.99 1005.69 1005.52 1005.40 1005.27 1005.09 1004.86 1004.59 1004.36 1004.21 1004.17 1004.28 1004.51 1004.81 1005.11 1005.39 1005.59 1005.74 1005.86 1005.98 1006.16 1006.41 1006.74 1007.11 1007.50 1007.86 1008.16 1008.39 1008.57 1008.72 1008.87 1009.06 1009.28 1009.54 1009.81 1010.06 1010.28 1010.44 1010.55 1010.65
1008.12 1007.41 1006.82 1006.38 1006.09 1005.91 1005.76 1005.59 1005.38 1005.10 1004.81 1004.55 1004.40 1004.38 1004.51 1004.75 1005.07 1005.38 1005.65 1005.84 1005.95 1006.02 1006.09 1006.22 1006.42 1006.70 1007.04 1007.41 1007.76 1008.07 1008.32 1008.53 1008.70 1008.88 1009.08 1009.31 1009.56 1009.82 1010.06 1010.26 1010.42 1010.55 1010.66
1008.35 1007.71 1007.17 1006.78 1006.52 1006.35 1006.20 1006.02 1005.78 1005.48 1005.16 1004.90 1004.73 1004.71 1004.83 1005.07 1005.36 1005.65 1005.88 1006.02 1006.08 1006.08 1006.09 1006.15 1006.29 1006.53 1006.83 1007.18 1007.53 1007.86 1008.15 1008.39 1008.61 1008.83 1009.05 1009.29 1009.54 1009.79 1010.02 1010.22 1010.39 1010.53 1010.67
1008.47 1007.90 1007.45 1007.14 1006.95 1006.83 1006.71 1006.54 1006.30 1006.00 1005.68 1005.40 1005.22 1005.19 1005.28 1005.48 1005.73 1005.96 1006.12 1006.18 1006.16 1006.09 1006.03 1006.02 1006.09 1006.28 1006.55 1006.88 1007.23 1007.59 1007.91 1008.20 1008.46 1008.72 1008.97 1009.23 1009.49 1009.74 1009.97 1010.17 1010.36 1010.53 1010.71
1008.45 1007.99 1007.66 1007.46 1007.36 1007.32 1007.26 1007.14 1006.92 1006.64 1006.33 1006.05 1005.86 1005.80 1005.85 1006.00 1006.17 1006.32 1006.39 1006.37 1006.26 1006.11 1005.97 1005.89 1005.91 1006.04 1006.28 1006.59 1006.94 1007.30 1007.66 1007.99 1008.29 1008.59 1008.88 1009.16 1009.43 1009.69 1009.93 1010.15 1010.36 1010.57 1010.78
1008.36 1008.02 1007.80 1007.73 1007.75 1007.80 1007.82 1007.76 1007.59 1007.34 1007.05 1006.78 1006.59 1006.50 1006.51 1006.59 1006.69 1006.76 1006.73 1006.62 1006.43 1006.21 1005.99 1005.85 1005.82 1005.90 1006.10 1006.39 1006.73 1007.09 1007.46 1007.82 1008.16 1008.49 1008.80 1009.10 1009.39 1009.66 1009.92 1010.17 1010.41 1010.66 1010.92
1008.25 1008.02 1007.93 1007.98 1008.11 1008.26 1008.35 1008.35 1008.23 1008.02 1007.76 1007.51 1007.32 1007.21 1007.19 1007.22 1007.25 1007.23 1007.14 1006.95 1006.69 1006.40 1006.14 1005.95 1005.87 1005.91 1006.08 1006.34 1006.66 1007.01 1007.38 1007.74 1008.09 1008.43 1008.77 1009.08 1009.39 1009.68 1009.96 1010.24 1010.51 1010.80 1011.09
1008.22 1008.08 1008.09 1008.23 1008.45 1008.66 1008.81 1008.85 1008.77 1008.59 1008.36 1008.14 1007.96 1007.85 1007.82 1007.81 1007.79 1007.72 1007.57 1007.33 1007.03 1006.70 1006.41 1006.19 1006.08 1006.09 1006.23 1006.45 1006.74 1007.07 1007.41 1007.76 1008.11 1008.45 1008.79 1009.11 1009.43 1009.74 1010.04 1010.34 1010.65 1010.97 1011.29
1008.32 1008.25 1008.32 1008.51 1008.77 1009.00 1009.17 1009.22 1009.15 1009.00 1008.79 1008.59 1008.44 1008.35 1008.32 1008.31 1008.28 1008.18 1008.00 1007.74 1007.42 1007.08 1006.78 1006.55 1006.42 1006.42 1006.52 1006.71 1006.96 1007.25 1007.56 1007.88 1008.21 1008.53 1008.86 1009.19 1009.52 1009.84 1010.15 1010.47 1010.79 1011.12 1011.46
1008.56 1008.53 1008.62 1008.83 1009.07 1009.29 1009.43 1009.46 1009.38 1009.22 1009.03 1008.86 1008.75 1008.70 1008.69 1008.70 1008.67 1008.58 1008.40 1008.14 1007.83 1007.49 1007.20 1006.97 1006.85 1006.83 1006.91 1007.07 1007.28 1007.53 1007.79 1008.07 1008.36 1008.66 1008.98 1009.30 1009.62 1009.95 1010.27 1010.59 1010.91 1011.24 1011.58
1008.91 1008.89 1008.99 1009.17 1009.37 1009.53 1009.61 1009.59 1009.48 1009.32 1009.14 1009.00 1008.92 1008.91 1008.94 1008.98 1008.99 1008.92 1008.76 1008.52 1008.22 1007.91 1007.64 1007.42 1007.30 1007.28 1007.34 1007.47 1007.64 1007.84 1008.06 1008.29 1008.55 1008.83 1009.12 1009.42 1009.74 1010.06 1010.37 1010.68 1010.99 1011.29 1011.60
1009.32 1009.30 1009.39 1009.52 1009.66 1009.76 1009.77 1009.69 1009.54 1009.36 1009.18 1009.07 1009.03 1009.06 1009.14 1009.22 1009.26 1009.22 1009.09 1008.88 1008.61 1008.33 1008.07 1007.87 1007.75 1007.72 1007.76 1007.86 1007.99 1008.16 1008.34 1008.53 1008.76 1009.01 1009.28 1009.57 1009.87 1010.17 1010.47 1010.76 1011.03 1011.30 1011.56
1009.71 1009.71 1009.77 1009.87 1009.96 1009.99 1009.95 1009.82 1009.64 1009.44 1009.28 1009.18 1009.18 1009.24 1009.35 1009.47 1009.54 1009.53 1009.43 1009.24 1009.00 1008.74 1008.50 1008.31 1008.19 1008.14 1008.16 1008.23 1008.34 1008.46 1008.61 1008.78 1008.98 1009.21 1009.47 1009.74 1010.03 1010.32 1010.59 1010.84 1011.07 1011.28 1011.47
1010.04 1010.05 1010.12 1010.20 1010.26 1010.27 1010.19 1010.04 1009.86 1009.66 1009.52 1009.44 1009.45 1009.54 1009.67 1009.79 1009.88 1009.89 1009.80 1009.64 1009.41 1009.17 1008.94 1008.75 1008.62 1008.56 1008.56 1008.60 1008.67 1008.77 1008.90 1009.05 1009.23 1009.46 1009.71 1009.97 1010.25 1010.51 1010.75 1010.96 1011.14 1011.28 1011.41
1010.28 1010.33 1010.41 1010.51 1010.57 1010.58 1010.52 1010.40 1010.24 1010.07 1009.95 1009.89 1009.91 1010.00 1010.12 1010.24 1010.32 1010.33 1010.25 1010.09 1009.89 1009.65 1009.42 1009.23 1009.09 1009.01 1008.97 1008.98 1009.03 1009.10 1009.22 1009.36 1009.54 1009.77 1010.01 1010.28 1010.54 1010.78 1011.00 1011.16 1011.29 1011.37 1011.42
1010.45 1010.53 1010.65 1010.78 1010.89 1010.95 1010.94 1010.88 1010.78 1010.67 1010.58 1010.54 1010.56 1010.63 1010.72 1010.81 1010.86 1010.85 1010.78 1010.63 1010.43 1010.20 1009.98 1009.78 1009.62 1009.51 1009.44 1009.41 1009.44 1009.50 1009.60 1009.74 1009.93 1010.16 1010.41 1010.67 1010.93 1011.16 1011.34 1011.47 1011.55 1011.59 1011.58
1010.59 1010.70 1010.85 1011.03 1011.19 1011.33 1011.41 1011.44 1011.43 1011.39 1011.35 1011.33 1011.34 1011.38 1011.42 1011.47 1011.48 1011.45 1011.36 1011.22 1011.04 1010.83 1010.61 1010.41 1010.23 1010.09 1009.99 1009.94 1009.93 1009.97 1010.07 1010.21 1010.41 1010.64 1010.90 1011.16 1011.40 1011.61 1011.78 1011.89 1011.93 1011.93 1011.89
1010.72 1010.84 1011.02 1011.24 1011.47 1011.69 1011.88 1012.02 1012.11 1012.16 1012.18 1012.18 1012.18 1012.17 1012.17 1012.16 1012.13 1012.08 1011.98 1011.85 1011.70 1011.51 1011.31 1011.12 1010.93 1010.77 1010.64 1010.56 1010.52 1010.54 1010.63 1010.77 1010.96 1011.20 1011.45 1011.70 1011.93 1012.13 1012.28 1012.37 1012.40 1012.39 1012.34
1010.88 1011.01 1011.18 1011.42 1011.70 1011.99 1012.28 1012.54 1012.74 1012.88 1012.97 1012.99 1012.98 1012.95 1012.89 1012.83 1012.76 1012.69 1012.60 1012.50 1012.37 1012.23 1012.07 1011.89 1011.71 1011.53 1011.38 1011.27 1011.21 1011.21 1011.28 1011.41 1011.59 1011.81 1012.04 1012.28 1012.48 1012.66 1012.79 1012.87 1012.90 1012.90 1012.85
1011.08 1011.17 1011.33 1011.56 1011.86 1012.21 1012.58 1012.93 1013.24 1013.48 1013.63 1013.70 1013.69 1013.63 1013.54 1013.44 1013.34 1013.26 1013.19 1013.12 1013.05 1012.96 1012.84 1012.70 1012.53 1012.36 1012.20 1012.07 1011.98 1011.96 1012.01 1012.11 1012.27 1012.46 1012.66 1012.85 1013.02 1013.16 1013.26 1013.33 1013.37 1013.39 1013.38
1011.28 1011.34 1011.46 1011.66 1011.95 1012.33 1012.75 1013.19 1013.59 1013.92 1014.15 1014.26 1014.27 1014.20 1014.09 1013.97 1013.86 1013.79 1013.74 1013.72 1013.70 1013.67 1013.60 1013.51 1013.37 1013.21 1013.05 1012.91 1012.81 1012.77 1012.78 1012.86 1012.98 1013.12 1013.27 1013.41 1013.52 1013.60 1013.67 1013.72 1013.76 1013.80 1013.84
1011.45 1011.48 1011.55 1011.71 1011.97 1012.35 1012.81 1013.31 1013.79 1014.20 1014.50 1014.67 1014.72 1014.67 1014.56 1014.44 1014.33 1014.27 1014.25 1014.28 1014.32 1014.34 1014.34 1014.29 1014.19 1014.06 1013.91 1013.77 1013.66 1013.60 1013.60 1013.64 1013.72 1013.80 1013.88 1013.94 1013.97 1013.99 1014.00 1014.01 1014.04 1014.10 1014.17
1011.56 1011.57 1011.60 1011.71 1011.93 1012.30 1012.77 1013.32 1013.86 1014.35 1014.72 1014.96 1015.06 1015.04 1014.96 1014.85 1014.76 1014.72 1014.73 1014.79 1014.88 1014.97 1015.02 1015.02 1014.96 1014.86 1014.73 1014.60 1014.50 1014.44 1014.42 1014.43 1014.46 1014.49 1014.49 1014.47 1014.41 1014.34 1014.27 1014.22 1014.22 1014.27 1014.36
1011.57 1011.59 1011.59 1011.67 1011.86 1012.21 1012.69 1013.26 1013.85 1014.41 1014.85 1015.16 1015.32 1015.36 1015.31 1015.23 1015.16 1015.14 1015.18 1015.27 1015.40 1015.52 1015.62 1015.66 1015.64 1015.58 1015.48 1015.38 1015.29 1015.24 1015.22 1015.21 1015.21 1015.18 1015.11 1014.99 1014.84 1014.67 1014.52 1014.40 1014.34 1014.35 1014.42
1011.46 1011.52 1011.53 1011.60 1011.78 1012.10 1012.59 1013.17 1013.81 1014.42 1014.93 1015.30 1015.53 1015.62 1015.62 1015.57 1015.53 1015.53 1015.59 1015.71 1015.85 1016.01 1016.13 1016.20 1016.22 1016.18 1016.12 1016.06 1016.00 1015.97 1015.96 1015.95 1015.92 1015.86 1015.73 1015.54 1015.30 1015.04 1014.79 1014.58 1014.44 1014.39 1014.41
1011.23 1011.35 1011.41 1011.48 1011.67 1012.00 1012.48 1013.09 1013.75 1014.40 1014.97 1015.40 1015.68 1015.84 1015.88 1015.87 1015.86 1015.89 1015.96 1016.09 1016.24 1016.41 1016.54 1016.64 1016.67 1016.67 1016.65 1016.61 1016.60 1016.60 1016.61 1016.62 1016.59 1016.51 1016.35 1016.11 1015.80 1015.46 1015.11 1014.81 1014.58 1014.44 1014.39
Thickness
5774 5775 5774 5775 5775 5776 5776 5777 5777 5778 5778 5777 5777 5776 5776 5776 5776 5776 5776 5776 5775 5775 5775 5775 5775 5776 5776 5776 5776 5775 5775 5775 5775 5775 5775 5775 5775 5774 5774 5773 5773 5773 5772
5776 5774 5773 5773 5773 5774 5774 5775 5775 5775 5775 5775 5774 5773 5773 5773 5773 5773 5773 5773 5772 5772 5772 5772 5772 5772 5773 5774 5773 5773 5773 5772 5772 5773 5773 5773 5773 5773 5772 5771 5771 5770 5769
5776 5774 5771 5771 5771 5771 5772 5772 5773 5773 5772 5771 5770 5770 5769 5769 5770 5770 5770 5770 5770 5770 5770 5770 5769 5769 5769 5770 5770 5772 5772 5770 5770 5771 5771 5771 5771 5771 5769 5768 5768 5768 5767
5776 5772 5769 5769 5769 5769 5769 5770 5770 5770 5769 5768 5767 5767 5766 5766 5766 5767 5767 5766 5766 5767 5767 5767 5767 5766 5766 5767 5767 5768 5768 5767 5767 5767 5767 5767 5768 5767 5766 5765 5764 5765 5764
5774 5770 5767 5767 5767 5767 5767 5768 5769 5768 5767 5765 5764 5763 5763 5763 5763 5763 5763 5763 5763 5763 5763 5764 5764 5763 5763 5764 5764 5764 5764 5764 5764 5763 5763 5763 5762 5762 5761 5761 5761 5761 5761
5772 5769 5766 5765 5765 5764 5764 5765 5767 5767 5764 5762 5761 5760 5759 5759 5759 5759 5759 5759 5759 5760 5760 5760 5760 5760 5760 5760 5761 5761 5761 5760 5760 5759 5759 5758 5758 5758 5758 5757 5757 5757 5757
5770 5768 5765 5763 5762 5762 5761 5762 5762 5762 5761 5759 5757 5756 5756 5756 5756 5755 5755 5755 5756 5756 5756 5756 5757 5757 5757 5757 5757 5758 5757 5757 5757 5756 5755 5754 5754 5754 5753 5753 5753 5753 5753
5769 5767 5763 5761 5760 5759 5759 5758 5758 5758 5757 5756 5755 5754 5753 5753 5752 5752 5752 5752 5752 5752 5753 5753 5753 5753 5753 5753 5754 5754 5754 5754 5753 5752 5751 5749 5750 5750 5749 5749 5749 5749 5749
5768 5766 5763 5761 5759 5757 5756 5755 5755 5754 5754 5753 5752 5751 5751 5750 5749 5748 5748 5748 5748 5748 5749 5749 5749 5749 5749 5749 5750 5750 5749 5749 5749 5748 5747 5746 5745 5745 5745 5744 5744 5744 5745
5766 5765 5763 5761 5759 5756 5754 5753 5752 5751 5751 5750 5749 5748 5748 5747 5746 5745 5745 5745 5745 5745 5745 5746 5746 5746 5746 5745 5746 5746 5745 5745 5744 5743 5742 5741 5741 5741 5740 5740 5740 5740 5740
5762 5763 5762 5760 5758 5756 5754 5751 5750 5749 5748 5748 5747 5746 5745 5744 5744 5743 5742 5742 5742 5742 5742 5742 5742 5743 5742 5742 5742 5742 5741 5740 5739 5738 5737 5737 5736 5736 5735 5735 5735 5734 5734
5756 5759 5760 5759 5757 5755 5753 5750 5748 5747 5746 5746 5746 5744 5743 5743 5742 5741 5739 5739 5739 5739 5739 5739 5739 5740 5739 5739 5738 5737 5737 5736 5734 5733 5732 5732 5731 5730 5730 5730 5730 5729 5729
5755 5756 5757 5757 5755 5753 5751 5749 5747 5746 5744 5744 5744 5742 5741 5741 5739 5738 5737 5736 5736 5736 5736 5736 5736 5736 5736 5736 5735 5734 5733 5732 5730 5728 5727 5727 5726 5726 5725 5725 5725 5724 5724
5753 5753 5755 5756 5754 5752 5749 5747 5746 5744 5743 5742 5741 5741 5739 5738 5737 5735 5734 5734 5733 5733 5733 5733 5733 5733 5732 5732 5732 5731 5730 5728 5725 5723 5722 5722 5722 5721 5721 5721 5720 5720 5719
5751 5752 5752 5753 5751 5749 5747 5745 5744 5742 5741 5740 5739 5738 5737 5736 5734 5733 5732 5731 5730 5730 5729 5729 5729 5728 5728 5728 5727 5726 5725 5724 5722 5719 5718 5717 5717 5717 5717 5717 5717 5716 5715
5751 5750 5750 5750 5749 5747 5744 5742 5741 5740 5739 5737 5735 5735 5734 5733 5732 5730 5729 5728 5727 5727 5726 5726 5725 5724 5723 5723 5722 5721 5720 5719 5717 5715 5714 5713 5712 5712 5713 5713 5713 5712 5711
5750 5750 5748 5748 5747 5744 5742 5740 5739 5738 5736 5734 5732 5731 5730 5730 5729 5727 5726 5725 5724 5724 5723 5722 5721 5720 5719 5718 5717 5716 5715 5715 5713 5712 5710 5709 5708 5707 5708 5707 5708 5707 5706
5750 5747 5746 5746 5744 5742 5740 5738 5736 5734 5733 5731 5729 5728 5727 5727 5726 5724 5723 5722 5721 5720 5719 5718 5716 5714 5713 5712 5711 5711 5711 5710 5710 5709 5707 5705 5704 5703 5702 5702 5702 5701 5701
5748 5745 5742 5742 5740 5739 5737 5735 5733 5731 5729 5727 5726 5725 5724 5723 5722 5721 5719 5718 5718 5716 5715 5714 5712 5710 5708 5707 5707 5707 5707 5706 5706 5705 5704 5702 5701 5699 5698 5697 5696 5695 5695
5746 5744 5741 5739 5737 5736 5733 5731 5728 5727 5725 5724 5723 5722 5721 5720 5719 5717 5716 5715 5714 5712 5710 5709 5707 5706 5705 5704 5704 5703 5703 5702 5702 5701 5700 5699 5697 5696 5694 5693 5691 5690 5690
5742 5740 5737 5735 5733 5731 5728 5725 5721 5719 5720 5720 5720 5719 5718 5717 5715 5714 5713 5711 5710 5708 5706 5705 5703 5701 5700 5701 5697 5695 5697 5699 5698 5697 5696 5694 5693 5693 5691 5690 5688 5687 5686
5735 5734 5733 5731 5729 5727 5724 5723 5720 5718 5717 5717 5716 5715 5714 5713 5713 5712 5709 5708 5706 5704 5703 5701 5699 5696 5696 5697 5692 5687 5683 5685 5689 5693 5691 5690 5689 5689 5688 5687 5686 5684 5682
5730 5729 5729 5727 5725 5723 5721 5719 5717 5715 5713 5711 5710 5710 5710 5710 5709 5708 5707 5705 5704 5701 5699 5697 5696 5693 5689 5691 5691 5685 5678 5674 5678 5683 5685 5686 5685 5684 5684 5683 5682 5680 5679
5726 5726 5725 5723 5721 5719 5717 5714 5710 5706 5704 5705 5706 5706 5707 5706 5705 5704 5703 5702 5700 5698 5696 5695 5694 5691 5687 5684 5685 5685 5683 5680 5673 5671 5676 5679 5680 5680 5680 5680 5678 5677 5675
5722 5721 5719 5718 5716 5714 5713 5710 5707 5704 5704 5704 5704 5703 5702 5702 5701 5700 5699 5698 5697 5695 5693 5692 5690 5688 5685 5682 5680 5679 5678 5677 5676 5669 5665 5669 5672 5675 5676 5675 5674 5673 5672
5718 5716 5714 5712 5711 5710 5708 5706 5704 5701 5700 5698 5697 5697 5696 5696 5697 5696 5695 5694 5693 5691 5690 5688 5685 5683 5681 5680 5678 5676 5673 5670 5668 5667 5663 5663 5663 5667 5671 5671 5670 5669 5668